Elkins, WV

12:40 AM EDT on June 27, 2017 (GMT -0400)
Elkins-Randolph County

Weather History for KEKN - July, 2012

Change the Weather History Date:

Monday, July 23, 2012

  Actual Average Record
Temperature  
Mean Temperature 73 °F 70 °F  
Max Temperature 83 °F 81 °F 94 °F (1987)
Min Temperature 62 °F 59 °F 41 °F (1947)
Degree Days  
Heating Degree Days 0 0  
Month to date heating degree days 0 8  
Since 1 June heating degree days 70 63  
Since 1 July heating degree days 0 8  
Cooling Degree Days 8 5  
Month to date cooling degree days 229 117  
Year to date cooling degree days 392 232  
Since 1 June cooling degree days 329 209  
Growing Degree Days 22 (Base 50)    
Moisture  
Dew Point 65 °F    
Average Humidity 76    
Maximum Humidity 93    
Minimum Humidity 58    
Precipitation  
Precipitation T in 0.17 in 1.94 in (1998)
Month to date precipitation 6.38 4.07  
Year to date precipitation 26.42 27.68  
Snow  
Snow 0.00 in - - ()
Month to date snowfall 0.0  
Since 1 September snowfall 30.6  
Snow Depth 0.00 in    
Sea Level Pressure  
Sea Level Pressure 30.15 in    
Wind  
Wind Speed 4 mph (South)    
Max Wind Speed 17 mph    
Max Gust Speed 25 mph    
Visibility 9 miles    
Events      
T = Trace of Precipitation, MM = Missing Value Source: NWS Daily Summary

Daily Weather History Graph

Daily Weather History Graph

Search for Another Location

Airport or City:

Trip Planner

Search our weather history database for the weather conditions in past years. The results will help you decide how hot, cold, wet, or windy it might be!

Date:

Astronomy

Jul. 23, 2012 Rise Set
Actual Time 6:13 AM EDT 8:38 PM EDT
Civil Twilight 5:42 AM EDT 9:08 PM EDT
Nautical Twilight 5:04 AM EDT 9:46 PM EDT
Astronomical Twilight 4:23 AM EDT 10:27 PM EDT
Moon 10:58 AM EDT (7/23) 10:55 PM EDT (7/23)
Length of Visible Light 15h 26m
Length of Day
14h 25m
Waxing Crescent, 21% of the Moon is Illuminated
Jul 23
Waxing Crescent
Jul 26
First Quarter
Aug 1
Full
Aug 9
Last Quarter
Aug 17
New

Hourly Weather History & Observations

Time (EDT) Temp. Heat Index Dew Point Humidity Pressure Visibility Wind Dir Wind Speed Gust Speed Precip Events Conditions
12:51 AM 64.0 °F - 62.1 °F 93% 30.20 in 7.0 mi Calm Calm - N/A   Clear
1:51 AM 63.0 °F - 61.0 °F 93% 30.19 in 6.0 mi Calm Calm - N/A   Clear
2:51 AM 64.0 °F - 62.1 °F 93% 30.19 in 7.0 mi Calm Calm - N/A   Clear
3:51 AM 64.0 °F - 62.1 °F 93% 30.19 in 8.0 mi Calm Calm - N/A   Clear
4:51 AM 64.0 °F - 62.1 °F 93% 30.19 in 8.0 mi Calm Calm - 0.00 in   Clear
5:51 AM 63.0 °F - 61.0 °F 93% 30.19 in 7.0 mi Calm Calm - N/A   Clear
6:51 AM 64.0 °F - 62.1 °F 93% 30.19 in 6.0 mi Calm Calm - N/A   Clear
7:51 AM 66.9 °F - 63.0 °F 87% 30.19 in 8.0 mi Calm Calm - N/A   Clear
8:46 AM 66.2 °F - 62.6 °F 88% 30.22 in 7.0 mi Calm Calm - N/A   Mostly Cloudy
8:51 AM 66.9 °F - 63.0 °F 87% 30.20 in 7.0 mi Calm Calm - N/A   Mostly Cloudy
9:01 AM 68.0 °F - 64.4 °F 88% 30.22 in 8.0 mi Calm Calm - N/A   Scattered Clouds
9:49 AM 69.8 °F - 64.4 °F 83% 30.21 in 8.0 mi Calm Calm - N/A   Mostly Cloudy
9:51 AM 69.1 °F - 64.0 °F 84% 30.19 in 8.0 mi Calm Calm - N/A   Mostly Cloudy
10:07 AM 69.8 °F - 64.4 °F 83% 30.21 in 8.0 mi Calm Calm - N/A   Mostly Cloudy
10:51 AM 72.0 °F - 66.0 °F 81% 30.18 in 8.0 mi Calm Calm - N/A   Mostly Cloudy
11:51 AM 78.1 °F - 68.0 °F 71% 30.17 in 10.0 mi SSW 5.8 mph - 0.00 in   Mostly Cloudy
12:10 PM 78.8 °F - 68.0 °F 69% 30.19 in 10.0 mi Variable 4.6 mph - N/A   Mostly Cloudy
12:17 PM 78.8 °F - 68.0 °F 69% 30.19 in 10.0 mi SSE 3.5 mph - N/A   Mostly Cloudy
12:51 PM 79.0 °F - 68.0 °F 69% 30.15 in 10.0 mi Calm Calm - N/A   Scattered Clouds
1:51 PM 82.0 °F 84.5 °F 66.9 °F 60% 30.14 in 10.0 mi NW 8.1 mph 16.1 mph N/A   Overcast
2:51 PM 81.0 °F 82.7 °F 64.9 °F 58% 30.12 in 10.0 mi NNW 8.1 mph - N/A   Mostly Cloudy
3:51 PM 79.0 °F - 66.0 °F 64% 30.12 in 10.0 mi WSW 5.8 mph - 0.00 in   Overcast
4:51 PM 75.0 °F - 64.9 °F 71% 30.09 in 10.0 mi South 11.5 mph 18.4 mph N/A   Scattered Clouds
5:51 PM 77.0 °F - 66.2 °F 69% 30.10 in 10.0 mi South 10.4 mph - N/A   Partly Cloudy
6:51 PM 77.0 °F - 66.9 °F 71% 30.06 in 10.0 mi South 6.9 mph - N/A   Partly Cloudy
7:51 PM 75.0 °F - 66.0 °F 73% 30.05 in 10.0 mi SSE 6.9 mph - N/A   Scattered Clouds
8:51 PM 75.0 °F - 68.0 °F 79% 30.04 in 10.0 mi SSE 6.9 mph - N/A   Overcast
9:51 PM 73.0 °F - 68.0 °F 84% 30.04 in 10.0 mi SE 4.6 mph - N/A   Clear
10:51 PM 72.0 °F - 66.9 °F 84% 30.05 in 10.0 mi Variable 5.8 mph - N/A   Clear
11:51 PM 73.0 °F - 68.0 °F 84% 30.03 in 10.0 mi Calm Calm - N/A   Overcast